Weather History for KFRM - March, 2014

Change the Weather History Date:

Monday, March 17, 2014

  Actual Average Record
Temperature  
Mean Temperature 36 °F -  
Max Temperature 46 °F 39 °F 78 °F (2012)
Min Temperature 26 °F 24 °F 1 °F (1993)
Degree Days  
Heating Degree Days 29    
Moisture  
Dew Point 23 °F    
Average Humidity 66    
Maximum Humidity 75    
Minimum Humidity 53    
Precipitation  
Precipitation 0.00 in - - ()
Sea Level Pressure  
Sea Level Pressure 29.64 in    
Wind  
Wind Speed 22 mph (SSE)    
Max Wind Speed 29 mph    
Max Gust Speed 34 mph    
Visibility 10 miles    
Events      
Averages and records for this station are not official NWS values.
T = Trace of Precipitation, MM = Missing Value Source: NWS Daily Summary

Daily Weather History Graph

Daily Weather History Graph

Search for Another Location

Airport or City:

Trip Planner

Search our weather history database for the weather conditions in past years. The results will help you decide how hot, cold, wet, or windy it might be!

Date:

Astronomy

Mar. 17, 2014 Rise Set
Actual Time 7:26 AM CDT 7:26 PM CDT
Civil Twilight 6:57 AM CDT 7:55 PM CDT
Nautical Twilight 6:24 AM CDT 8:28 PM CDT
Astronomical Twilight 5:50 AM CDT 9:02 PM CDT
Moon 8:47 PM CDT (3/17) 7:39 AM CDT (3/17)
Length of Visible Light 12h 57m
Length of Day
12h 00m
Full, 99% of the Moon is Illuminated
Mar 17
Full
Mar 23
Last Quarter
Mar 30
New
Apr 7
First Quarter
Apr 15
Full

Hourly Weather History & Observations

Time (CDT) Temp. Windchill Dew Point Humidity Pressure Visibility Wind Dir Wind Speed Gust Speed Precip Events Conditions
12:15 AM 26.6 °F 13.4 °F 19.4 °F 74% 29.99 in 10.0 mi South 18.4 mph 27.6 mph N/A   Overcast
12:35 AM 26.6 °F 11.7 °F 17.6 °F 69% 29.97 in 10.0 mi South 24.2 mph 27.6 mph N/A   Overcast
12:55 AM 26.6 °F 12.0 °F 19.4 °F 74% 29.95 in 10.0 mi South 23.0 mph 27.6 mph N/A   Overcast
1:15 AM 26.6 °F 12.7 °F 17.6 °F 69% 29.95 in 10.0 mi South 20.7 mph 24.2 mph N/A   Mostly Cloudy
1:35 AM 26.6 °F 12.7 °F 17.6 °F 69% 29.94 in 10.0 mi South 20.7 mph - N/A   Mostly Cloudy
1:55 AM 26.6 °F 12.7 °F 17.6 °F 69% 29.92 in 10.0 mi South 20.7 mph 26.5 mph N/A   Overcast
2:15 AM 26.6 °F 12.7 °F 17.6 °F 69% 29.91 in 10.0 mi South 20.7 mph 25.3 mph N/A   Overcast
2:35 AM 26.6 °F 11.7 °F 17.6 °F 69% 29.89 in 10.0 mi South 24.2 mph 31.1 mph N/A   Overcast
2:55 AM 26.6 °F 10.8 °F 17.6 °F 69% 29.87 in 10.0 mi South 27.6 mph 34.5 mph N/A   Overcast
3:15 AM 26.6 °F 11.4 °F 17.6 °F 69% 29.85 in 10.0 mi South 25.3 mph 32.2 mph N/A   Overcast
3:35 AM 26.6 °F 10.6 °F 17.6 °F 69% 29.85 in 10.0 mi South 28.8 mph 34.5 mph N/A   Overcast
3:55 AM 26.6 °F 11.4 °F 17.6 °F 69% 29.83 in 10.0 mi South 25.3 mph 33.4 mph N/A   Overcast
4:15 AM 26.6 °F 10.8 °F 17.6 °F 69% 29.80 in 10.0 mi South 27.6 mph 33.4 mph N/A   Overcast
4:35 AM 26.6 °F 10.8 °F 17.6 °F 69% 29.79 in 10.0 mi South 27.6 mph 34.5 mph N/A   Overcast
4:55 AM 26.6 °F 10.6 °F 17.6 °F 69% 29.76 in 10.0 mi South 28.8 mph 34.5 mph N/A   Mostly Cloudy
5:15 AM 26.6 °F 11.4 °F 17.6 °F 69% 29.76 in 10.0 mi South 25.3 mph 34.5 mph N/A   Mostly Cloudy
5:35 AM 26.6 °F 11.1 °F 17.6 °F 69% 29.75 in 10.0 mi South 26.5 mph 33.4 mph N/A   Scattered Clouds
5:55 AM 26.6 °F 11.7 °F 17.6 °F 69% 29.74 in 10.0 mi South 24.2 mph 34.5 mph N/A   Mostly Cloudy
6:15 AM 26.6 °F 11.4 °F 17.6 °F 69% 29.73 in 10.0 mi South 25.3 mph 31.1 mph N/A   Overcast
6:35 AM 26.6 °F 10.8 °F 17.6 °F 69% 29.71 in 10.0 mi South 27.6 mph 33.4 mph N/A   Overcast
6:55 AM 26.6 °F 11.7 °F 17.6 °F 69% 29.72 in 10.0 mi South 24.2 mph - N/A   Overcast
7:15 AM 26.6 °F 11.7 °F 17.6 °F 69% 29.71 in 10.0 mi South 24.2 mph 29.9 mph N/A   Overcast
7:35 AM 26.6 °F 11.7 °F 17.6 °F 69% 29.72 in 10.0 mi South 24.2 mph 28.8 mph N/A   Overcast
7:55 AM 26.6 °F 12.7 °F 17.6 °F 69% 29.72 in 10.0 mi South 20.7 mph 26.5 mph N/A   Overcast
8:15 AM 26.6 °F 13.4 °F 17.6 °F 69% 29.71 in 10.0 mi South 18.4 mph - N/A   Overcast
8:35 AM 26.6 °F 12.0 °F 17.6 °F 69% 29.67 in 10.0 mi South 23.0 mph 27.6 mph N/A   Mostly Cloudy
8:55 AM 26.6 °F 13.1 °F 17.6 °F 69% 29.69 in 10.0 mi South 19.6 mph 27.6 mph N/A   Scattered Clouds
9:15 AM 28.4 °F 15.4 °F 17.6 °F 64% 29.69 in 10.0 mi South 19.6 mph - N/A   Overcast
9:35 AM 28.4 °F 15.8 °F 17.6 °F 64% 29.67 in 10.0 mi South 18.4 mph 26.5 mph N/A   Mostly Cloudy
9:55 AM 28.4 °F 13.8 °F 19.4 °F 69% 29.64 in 10.0 mi South 25.3 mph - N/A   Scattered Clouds
10:15 AM 30.2 °F 15.7 °F 19.4 °F 64% 29.63 in 10.0 mi South 27.6 mph 32.2 mph N/A   Mostly Cloudy
10:35 AM 30.2 °F 17.1 °F 19.4 °F 64% 29.63 in 10.0 mi South 21.9 mph 27.6 mph N/A   Scattered Clouds
10:55 AM 32.0 °F 19.5 °F 19.4 °F 60% 29.62 in 10.0 mi South 21.9 mph - N/A   Partly Cloudy
11:15 AM 33.8 °F 21.6 °F 21.2 °F 60% 29.60 in 10.0 mi South 23.0 mph 26.5 mph N/A   Partly Cloudy
11:35 AM 33.8 °F 20.8 °F 21.2 °F 60% 29.59 in 10.0 mi South 26.5 mph 31.1 mph N/A   Clear
11:55 AM 35.6 °F 23.4 °F 23.0 °F 60% 29.59 in 10.0 mi South 25.3 mph - N/A   Clear
12:15 PM 35.6 °F 23.4 °F 23.0 °F 60% 29.59 in 10.0 mi South 25.3 mph 29.9 mph N/A   Clear
12:35 PM 37.4 °F 26.4 °F 23.0 °F 56% 29.59 in 10.0 mi South 23.0 mph 27.6 mph N/A   Clear
12:55 PM 37.4 °F 27.2 °F 24.8 °F 60% 29.59 in 10.0 mi SSW 19.6 mph - N/A   Partly Cloudy
1:15 PM 39.2 °F 28.7 °F 26.6 °F 61% 29.57 in 10.0 mi South 23.0 mph 28.8 mph N/A   Partly Cloudy
1:35 PM 39.2 °F 28.7 °F 26.6 °F 61% 29.56 in 10.0 mi South 23.0 mph - N/A   Clear
1:55 PM 41.0 °F 31.4 °F 26.6 °F 57% 29.55 in 10.0 mi South 21.9 mph 26.5 mph N/A   Clear
2:15 PM 42.8 °F 34.5 °F 28.4 °F 57% 29.54 in 10.0 mi South 18.4 mph - N/A   Clear
2:35 PM 42.8 °F 34.5 °F 28.4 °F 57% 29.53 in 10.0 mi South 18.4 mph 25.3 mph N/A   Clear
2:55 PM 42.8 °F 34.0 °F 28.4 °F 57% 29.52 in 10.0 mi South 20.7 mph 24.2 mph N/A   Clear
3:15 PM 44.6 °F 36.6 °F 30.2 °F 57% 29.52 in 10.0 mi South 19.6 mph - N/A   Clear
3:35 PM 44.6 °F 36.1 °F 30.2 °F 57% 29.50 in 10.0 mi South 21.9 mph - N/A   Clear
3:55 PM 44.6 °F 36.4 °F 30.2 °F 57% 29.50 in 10.0 mi South 20.7 mph - N/A   Clear
4:15 PM 46.4 °F 38.5 °F 30.2 °F 53% 29.50 in 10.0 mi South 21.9 mph 26.5 mph N/A   Clear
4:35 PM 46.4 °F 39.5 °F 32.0 °F 57% 29.50 in 10.0 mi South 17.3 mph 21.9 mph N/A   Clear
4:55 PM 46.4 °F 38.7 °F 30.2 °F 53% 29.49 in 10.0 mi South 20.7 mph 26.5 mph N/A   Clear
5:15 PM 46.4 °F 39.5 °F 33.8 °F 62% 29.49 in 10.0 mi SSE 17.3 mph 20.7 mph N/A   Clear
5:35 PM 44.6 °F 37.4 °F 32.0 °F 61% 29.49 in 10.0 mi SSE 16.1 mph - N/A   Clear
5:55 PM 44.6 °F 37.4 °F 32.0 °F 61% 29.49 in 10.0 mi SSE 16.1 mph - N/A   Clear
6:15 PM 44.6 °F 38.1 °F 32.0 °F 61% 29.50 in 10.0 mi SSE 13.8 mph - N/A   Clear
6:35 PM 42.8 °F 35.4 °F 32.0 °F 66% 29.50 in 10.0 mi SSE 15.0 mph - N/A   Clear
6:55 PM 42.8 °F 35.4 °F 30.2 °F 61% 29.50 in 10.0 mi SSE 15.0 mph - N/A   Clear
7:15 PM 42.8 °F 35.8 °F 30.2 °F 61% 29.50 in 10.0 mi SSE 13.8 mph - N/A   Clear
7:35 PM 39.2 °F 31.6 °F 30.2 °F 70% 29.51 in 10.0 mi SE 12.7 mph - N/A   Clear
7:55 PM 39.2 °F 31.2 °F 30.2 °F 70% 29.51 in 10.0 mi SE 13.8 mph - N/A   Clear
8:15 PM 37.4 °F 28.5 °F 30.2 °F 75% 29.51 in 10.0 mi SE 15.0 mph - N/A   Clear
8:35 PM 37.4 °F 28.5 °F 28.4 °F 70% 29.51 in 10.0 mi SE 15.0 mph - N/A   Clear
8:55 PM 35.6 °F 26.2 °F 28.4 °F 75% 29.51 in 10.0 mi SE 15.0 mph - N/A   Clear
9:15 PM 35.6 °F 26.2 °F 28.4 °F 75% 29.51 in 10.0 mi SE 15.0 mph - N/A   Clear
9:35 PM 35.6 °F 26.2 °F 28.4 °F 75% 29.51 in 10.0 mi SE 15.0 mph - N/A   Clear
9:55 PM 35.6 °F 25.9 °F 28.4 °F 75% 29.52 in 10.0 mi SE 16.1 mph - N/A   Clear
10:15 PM 35.6 °F 25.5 °F 26.6 °F 70% 29.52 in 10.0 mi SE 17.3 mph - N/A   Clear
10:35 PM 35.6 °F 26.2 °F 26.6 °F 70% 29.53 in 10.0 mi SE 15.0 mph - N/A   Clear
10:55 PM 35.6 °F 25.9 °F 26.6 °F 70% 29.53 in 10.0 mi SE 16.1 mph - N/A   Clear
11:15 PM 35.6 °F 25.9 °F 26.6 °F 70% 29.53 in 10.0 mi SE 16.1 mph 21.9 mph N/A   Clear
11:35 PM 35.6 °F 25.5 °F 26.6 °F 70% 29.52 in 10.0 mi SE 17.3 mph 20.7 mph N/A   Clear
11:55 PM 35.6 °F 25.2 °F 26.6 °F 70% 29.52 in 10.0 mi SE 18.4 mph 23.0 mph N/A   Clear